Overview Statistics Trail Chart Weather Telemetry Raw packets
 

This is the latest recevied weather packets stored in our database for station/object KE8WMS. If no packets are shown the sender has not sent any weather packets the latest 10 day(s).

<< 7 8 9 10 11 12 13 >>
Time Temp. Humidity Pressure Rain* Wind** Luminosity Snow
1777761689 6.67° C 59% 1013.1 hPa 0 mm - 72 W/m² -
1777761387 7.22° C 60% 1013.1 hPa 0 mm - 77 W/m² -
1777761085 6.67° C 59% 1013 hPa 0 mm - 86 W/m² -
1777760782 6.67° C 59% 1013.1 hPa 0 mm - 103 W/m² -
1777760479 7.22° C 60% 1013.3 hPa 0 mm - 121 W/m² -
1777760174 7.22° C 57% 1013.9 hPa 0 mm - 133 W/m² -
1777759872 6.67° C 57% 1014.2 hPa 0 mm - 136 W/m² -
1777759568 7.22° C 59% 1014.4 hPa 0 mm - 126 W/m² -
1777759264 7.22° C 57% 1014.1 hPa 0 mm - 138 W/m² -
1777758961 7.22° C 58% 1014.2 hPa 0 mm - 157 W/m² -
1777758658 7.22° C 58% 1014.3 hPa 0 mm - 191 W/m² -
1777758355 7.78° C 58% 1014.1 hPa 0 mm - 194 W/m² -
1777758053 7.22° C 59% 1014.2 hPa 0 mm - 183 W/m² -
1777757749 7.22° C 61% 1014.2 hPa 0 mm - 196 W/m² -
1777757447 7.22° C 60% 1014.1 hPa 0 mm - 202 W/m² -
1777757146 7.22° C 59% 1014 hPa 0 mm - 225 W/m² -
1777756843 7.22° C 62% 1014.1 hPa 0 mm - 263 W/m² -
1777756538 6.67° C 65% 1013.9 hPa 0 mm - 277 W/m² -
1777756236 6.67° C 64% 1014.1 hPa 0 mm - 269 W/m² -
1777755933 6.67° C 63% 1014.1 hPa 0 mm - 194 W/m² -
1777755630 6.67° C 64% 1013.9 hPa 0 mm - 177 W/m² -
1777755326 6.67° C 64% 1014.2 hPa 0 mm - 162 W/m² -
1777755024 6.67° C 65% 1014.1 hPa 0 mm - 133 W/m² -
1777754721 6.11° C 65% 1014.3 hPa 0 mm - 100 W/m² -
1777754418 6.11° C 66% 1014.2 hPa 0 mm - 95 W/m² -

* Rain latest hour (hover to see other rain measurements)
** Current wind speed in m/s (hover to see current wind gust speed)